Tracking 23762 objects as of 22-Oct-2021
HD Live streaming from Space Station
objects crossing your sky now

CZ-2C DEB

Track CZ-2C DEB now!
10-day predictions


NORAD ID: 37770
Int'l Code: 2011-039F
Perigee: 637.6 km
Apogee: 771.9 km
Inclination: 97.9 °
Period: 98.7 minutes
Semi major axis: 7075 km
RCS: 0.0832 m2 (small)
Launch date: July 29, 2011
Source: People's Republic of China (PRC)
Launch site: Jiuquan Satellite Launch Center, China (JSC)

Note: This is SATELLITE DEBRIS
aabbcc
Your satellite tracking list
Your tracking list is empty




NASA's NSSDC Master Catalog

Two Line Element Set (TLE):
1 37770U 11039F   21294.40388994  .00001201  00000-0  25170-3 0  9993
2 37770  97.8833 235.9979 0094905  84.7897  30.6453 14.58627394542740
Source of the keplerian elements: AFSPC